ETD696 OMAA-OOMS

Flight info

Callsign ETD696
Flight time 0h 43m
Altitude 21000
Route ORNEL N685 LAKLU G216 MCT
Aircraft A320/M-SDE3FGHIRWY/LB1

Departure

Time 2026-04-29 19:49
Airport Zayed International Airport (OMAA)

Arrival

Time 2026-04-29 20:32
Airport Muscat International Airport (OOMS)
Time Latitude Longitude Altitude Speed Heading
2026-04-29 19:29 24.44785 54.64419 92 ft 0 kts 253°
2026-04-29 19:36 24.44786 54.64424 92 ft 3 kts 253°
2026-04-29 19:36 24.44794 54.64452 91 ft 4 kts 253°
2026-04-29 19:36 24.44801 54.64476 92 ft 2 kts 253°
2026-04-29 19:36 24.44809 54.64503 91 ft 4 kts 245°
2026-04-29 19:37 24.44823 54.64527 92 ft 4 kts 218°
2026-04-29 19:37 24.44829 54.64532 92 ft 3 kts 210°
2026-04-29 19:37 24.44796 54.64526 94 ft 4 kts 173°
2026-04-29 19:37 24.44776 54.64533 94 ft 0 kts 160°
2026-04-29 19:39 24.44764 54.64538 93 ft 3 kts 160°
2026-04-29 19:40 24.44730 54.64552 92 ft 7 kts 160°
2026-04-29 19:40 24.44682 54.64590 92 ft 10 kts 141°
2026-04-29 19:40 24.44625 54.64655 94 ft 14 kts 123°
2026-04-29 19:40 24.44587 54.64736 93 ft 11 kts 94°
2026-04-29 19:41 24.44598 54.64827 94 ft 14 kts 110°
2026-04-29 19:41 24.44535 54.64919 94 ft 17 kts 128°
2026-04-29 19:41 24.44458 54.65027 92 ft 20 kts 128°
2026-04-29 19:41 24.44365 54.65086 94 ft 17 kts 203°
2026-04-29 19:42 24.44264 54.65003 93 ft 19 kts 218°
2026-04-29 19:42 24.44193 54.64942 93 ft 20 kts 218°
2026-04-29 19:42 24.44039 54.64813 92 ft 17 kts 215°
2026-04-29 19:42 24.43951 54.64745 92 ft 13 kts 215°
2026-04-29 19:43 24.43881 54.64768 92 ft 12 kts 135°
2026-04-29 19:43 24.43820 54.64844 91 ft 14 kts 126°
2026-04-29 19:43 24.43763 54.64941 94 ft 16 kts 122°
2026-04-29 19:43 24.43691 54.65044 91 ft 18 kts 129°
2026-04-29 19:44 24.43609 54.65157 92 ft 20 kts 127°
2026-04-29 19:44 24.43522 54.65283 92 ft 22 kts 129°
2026-04-29 19:44 24.43423 54.65418 95 ft 24 kts 127°
2026-04-29 19:44 24.43317 54.65567 92 ft 25 kts 128°
2026-04-29 19:45 24.43206 54.65725 92 ft 27 kts 128°
2026-04-29 19:45 24.43085 54.65894 92 ft 29 kts 128°
2026-04-29 19:45 24.42975 54.66049 92 ft 25 kts 128°
2026-04-29 19:45 24.42865 54.66203 92 ft 26 kts 127°
2026-04-29 19:46 24.42758 54.66356 92 ft 23 kts 128°
2026-04-29 19:46 24.42655 54.66503 92 ft 25 kts 127°
2026-04-29 19:46 24.42543 54.66658 92 ft 27 kts 128°
2026-04-29 19:46 24.42442 54.66775 94 ft 15 kts 176°
2026-04-29 19:47 24.42355 54.66708 93 ft 16 kts 217°
2026-04-29 19:47 24.42266 54.66633 93 ft 10 kts 224°
2026-04-29 19:47 24.42272 54.66574 92 ft 0 kts 308°
2026-04-29 19:47 24.42274 54.66571 91 ft 0 kts 307°
2026-04-29 19:48 24.42276 54.66569 91 ft 1 kts 307°
2026-04-29 19:48 24.42284 54.66557 91 ft 9 kts 307°
2026-04-29 19:48 24.42627 54.66094 93 ft 106 kts 308°
2026-04-29 19:48 24.43197 54.65283 96 ft 160 kts 309°
2026-04-29 19:49 24.43977 54.64274 450 ft 177 kts 310°
2026-04-29 19:49 24.44709 54.63190 1019 ft 182 kts 308°
2026-04-29 19:49 24.45398 54.62000 1718 ft 186 kts 306°
2026-04-29 19:49 24.46176 54.60799 2187 ft 203 kts 312°
2026-04-29 19:50 24.47110 54.59534 2419 ft 222 kts 313°
2026-04-29 19:50 24.48129 54.58176 2730 ft 241 kts 313°
2026-04-29 19:50 24.49233 54.56692 3123 ft 258 kts 312°
2026-04-29 19:50 24.50502 54.55281 3793 ft 260 kts 328°
2026-04-29 19:51 24.52180 54.54539 4471 ft 263 kts 352°
2026-04-29 19:51 24.54005 54.54691 5162 ft 269 kts 17°
2026-04-29 19:51 24.55618 54.55759 5806 ft 278 kts 45°
2026-04-29 19:51 24.56634 54.57584 6414 ft 286 kts 73°
2026-04-29 19:52 24.56748 54.59761 7003 ft 291 kts 104°
2026-04-29 19:52 24.55964 54.61770 7686 ft 291 kts 122°
2026-04-29 19:52 24.54947 54.63691 8420 ft 292 kts 123°
2026-04-29 19:52 24.53907 54.65625 9144 ft 295 kts 123°
2026-04-29 19:53 24.52860 54.67576 9835 ft 298 kts 123°
2026-04-29 19:53 24.51799 54.69561 10315 ft 309 kts 123°
2026-04-29 19:53 24.50668 54.71678 10446 ft 331 kts 123°
2026-04-29 19:53 24.49468 54.73930 10568 ft 352 kts 123°
2026-04-29 19:54 24.46896 54.78783 11077 ft 378 kts 122°
2026-04-29 19:54 24.45577 54.81299 11618 ft 382 kts 122°
2026-04-29 19:54 24.44271 54.83806 12166 ft 385 kts 122°
2026-04-29 19:55 24.42951 54.86357 12741 ft 388 kts 122°
2026-04-29 19:55 24.41600 54.88944 13303 ft 390 kts 122°
2026-04-29 19:55 24.40240 54.91530 13828 ft 394 kts 122°
2026-04-29 19:55 24.38863 54.94140 14303 ft 398 kts 123°
2026-04-29 19:56 24.37467 54.96776 14762 ft 402 kts 123°
2026-04-29 19:56 24.36054 54.99447 15236 ft 406 kts 123°
2026-04-29 19:56 24.34629 55.02146 15696 ft 411 kts 123°
2026-04-29 19:56 24.33186 55.04880 16153 ft 416 kts 123°
2026-04-29 19:57 24.31749 55.07607 16621 ft 421 kts 123°
2026-04-29 19:57 24.30759 55.09487 16950 ft 424 kts 123°
2026-04-29 19:57 24.28792 55.13222 17581 ft 430 kts 123°
2026-04-29 19:57 24.27284 55.16077 18063 ft 434 kts 123°
2026-04-29 19:58 24.25763 55.18961 18484 ft 439 kts 123°
2026-04-29 19:58 24.24227 55.21871 18913 ft 442 kts 123°
2026-04-29 19:58 24.22679 55.24806 19334 ft 446 kts 124°
2026-04-29 19:58 24.21138 55.27718 19755 ft 449 kts 124°
2026-04-29 19:59 24.19564 55.30684 20151 ft 452 kts 124°
2026-04-29 19:59 24.17977 55.33670 20615 ft 454 kts 124°
2026-04-29 19:59 24.16385 55.36666 20795 ft 455 kts 124°
2026-04-29 19:59 24.14775 55.39697 20852 ft 465 kts 124°
2026-04-29 20:00 24.13130 55.42794 20848 ft 477 kts 124°
2026-04-29 20:00 24.11446 55.45967 20850 ft 486 kts 123°
2026-04-29 20:00 24.09741 55.49179 20851 ft 489 kts 124°
2026-04-29 20:00 24.08023 55.52410 20850 ft 490 kts 124°
2026-04-29 20:01 24.06305 55.55641 20850 ft 491 kts 124°
2026-04-29 20:01 24.04587 55.58869 20849 ft 491 kts 124°
2026-04-29 20:01 24.02890 55.62056 20845 ft 491 kts 124°
2026-04-29 20:01 24.01174 55.65276 20825 ft 491 kts 124°
2026-04-29 20:02 23.99450 55.68507 20844 ft 491 kts 124°
2026-04-29 20:02 23.97725 55.71735 20839 ft 491 kts 124°
2026-04-29 20:02 23.95999 55.74953 20833 ft 491 kts 124°
2026-04-29 20:02 23.95411 55.76049 20817 ft 491 kts 124°
2026-04-29 20:03 23.92540 55.81406 20826 ft 490 kts 124°
2026-04-29 20:03 23.90823 55.84620 20829 ft 490 kts 124°
2026-04-29 20:03 23.89128 55.87798 20824 ft 490 kts 124°
2026-04-29 20:03 23.87410 55.91019 20833 ft 490 kts 124°
2026-04-29 20:04 23.85685 55.94244 20833 ft 490 kts 124°
2026-04-29 20:04 23.83962 55.97458 20818 ft 490 kts 124°
2026-04-29 20:04 23.82235 56.00667 20849 ft 489 kts 124°
2026-04-29 20:04 23.80508 56.03862 20850 ft 489 kts 124°
2026-04-29 20:05 23.78798 56.07027 20849 ft 489 kts 124°
2026-04-29 20:05 23.77076 56.10221 20853 ft 488 kts 124°
2026-04-29 20:05 23.75353 56.13418 20853 ft 488 kts 124°
2026-04-29 20:05 23.73632 56.16622 20845 ft 489 kts 124°
2026-04-29 20:06 23.71910 56.19820 20841 ft 488 kts 124°
2026-04-29 20:06 23.70185 56.23015 20838 ft 488 kts 124°
2026-04-29 20:06 23.68463 56.26201 20836 ft 488 kts 124°
2026-04-29 20:06 23.66739 56.29394 20829 ft 488 kts 124°
2026-04-29 20:07 23.65022 56.32578 20850 ft 487 kts 123°
2026-04-29 20:07 23.63322 56.35721 20855 ft 487 kts 123°
2026-04-29 20:07 23.61595 56.38907 20844 ft 487 kts 123°
2026-04-29 20:07 23.59870 56.42086 20842 ft 486 kts 123°
2026-04-29 20:08 23.58146 56.45259 20853 ft 486 kts 123°
2026-04-29 20:08 23.57564 56.46331 20858 ft 486 kts 123°
2026-04-29 20:08 23.54706 56.51603 20844 ft 486 kts 123°
2026-04-29 20:08 23.52984 56.54778 20852 ft 486 kts 124°
2026-04-29 20:09 23.51264 56.57946 20849 ft 486 kts 124°
2026-04-29 20:09 23.49558 56.61126 20839 ft 488 kts 121°
2026-04-29 20:09 23.48650 56.63374 20843 ft 491 kts 111°
2026-04-29 20:09 23.47907 56.68299 20831 ft 497 kts 90°
2026-04-29 20:10 23.48056 56.70781 20850 ft 497 kts 86°
2026-04-29 20:10 23.48373 56.74538 20857 ft 497 kts 85°
2026-04-29 20:10 23.48702 56.78288 20857 ft 497 kts 85°
2026-04-29 20:10 23.49034 56.82050 20852 ft 497 kts 85°
2026-04-29 20:11 23.49473 56.87017 20860 ft 497 kts 85°
2026-04-29 20:11 23.49695 56.89549 20860 ft 497 kts 85°
2026-04-29 20:11 23.50018 56.93290 20860 ft 498 kts 86°
2026-04-29 20:11 23.50335 56.97032 20719 ft 492 kts 86°
2026-04-29 20:12 23.50647 57.00724 20020 ft 485 kts 86°
2026-04-29 20:12 23.50955 57.04376 19721 ft 483 kts 86°
2026-04-29 20:12 23.51257 57.07974 19434 ft 482 kts 85°
2026-04-29 20:12 23.51559 57.11606 19161 ft 479 kts 85°
2026-04-29 20:13 23.51859 57.15215 18889 ft 477 kts 85°
2026-04-29 20:13 23.52158 57.18810 18603 ft 474 kts 85°
2026-04-29 20:13 23.52453 57.22378 18335 ft 472 kts 85°
2026-04-29 20:13 23.52744 57.25938 18088 ft 469 kts 85°
2026-04-29 20:14 23.53033 57.29472 17815 ft 467 kts 85°
2026-04-29 20:14 23.53318 57.32948 17561 ft 465 kts 85°
2026-04-29 20:14 23.53609 57.36447 17343 ft 463 kts 85°
2026-04-29 20:14 23.53899 57.39919 17060 ft 461 kts 85°
2026-04-29 20:15 23.54186 57.43393 16809 ft 459 kts 85°
2026-04-29 20:15 23.54470 57.46844 16565 ft 457 kts 85°
2026-04-29 20:15 23.54752 57.50286 16310 ft 455 kts 85°
2026-04-29 20:15 23.55028 57.53707 16063 ft 452 kts 85°
2026-04-29 20:16 23.55304 57.57119 15817 ft 450 kts 85°
2026-04-29 20:16 23.55579 57.60515 15563 ft 448 kts 85°
2026-04-29 20:16 23.55851 57.63888 15326 ft 446 kts 85°
2026-04-29 20:16 23.56120 57.67264 15092 ft 445 kts 85°
2026-04-29 20:17 23.56383 57.70584 14862 ft 445 kts 85°
2026-04-29 20:17 23.56651 57.73938 14621 ft 443 kts 85°
2026-04-29 20:17 23.56916 57.77268 14381 ft 441 kts 85°
2026-04-29 20:17 23.57180 57.80593 14066 ft 438 kts 85°
2026-04-29 20:18 23.57439 57.83889 13711 ft 435 kts 85°
2026-04-29 20:18 23.57699 57.87179 13350 ft 436 kts 85°
2026-04-29 20:18 23.57959 57.90469 12970 ft 436 kts 85°
2026-04-29 20:18 23.58301 57.93744 12586 ft 434 kts 77°
2026-04-29 20:19 23.59195 57.96876 12174 ft 431 kts 68°
2026-04-29 20:19 23.60317 57.99903 11762 ft 429 kts 67°
2026-04-29 20:19 23.61439 58.02878 11356 ft 427 kts 67°
2026-04-29 20:19 23.62565 58.05860 10944 ft 424 kts 67°
2026-04-29 20:20 23.63689 58.08828 10547 ft 422 kts 67°
2026-04-29 20:20 23.64808 58.11781 10155 ft 420 kts 67°
2026-04-29 20:20 23.65920 58.14714 9743 ft 418 kts 67°
2026-04-29 20:20 23.67029 58.17637 9320 ft 416 kts 67°
2026-04-29 20:21 23.68124 58.20531 8920 ft 413 kts 66°
2026-04-29 20:21 23.69087 58.23469 8503 ft 406 kts 71°
2026-04-29 20:21 23.69913 58.26368 8088 ft 393 kts 72°
2026-04-29 20:21 23.70700 58.29177 7677 ft 383 kts 72°
2026-04-29 20:22 23.71350 58.31960 7278 ft 373 kts 78°
2026-04-29 20:22 23.71762 58.34682 6884 ft 354 kts 80°
2026-04-29 20:22 23.72066 58.37286 6499 ft 339 kts 82°
2026-04-29 20:22 23.72329 58.39758 6113 ft 326 kts 82°
2026-04-29 20:23 23.72574 58.42176 5705 ft 315 kts 82°
2026-04-29 20:23 23.72797 58.44518 5299 ft 305 kts 82°
2026-04-29 20:23 23.72999 58.46796 4898 ft 297 kts 82°
2026-04-29 20:23 23.73180 58.49007 4504 ft 290 kts 81°
2026-04-29 20:24 23.73201 58.51182 4221 ft 282 kts 92°
2026-04-29 20:24 23.72613 58.53160 4048 ft 270 kts 122°
2026-04-29 20:24 23.71338 58.54575 3984 ft 259 kts 143°
2026-04-29 20:24 23.69801 58.55589 3982 ft 257 kts 158°
2026-04-29 20:25 23.68148 58.56336 3983 ft 257 kts 160°
2026-04-29 20:25 23.66480 58.57011 3980 ft 254 kts 168°
2026-04-29 20:25 23.64838 58.57005 3963 ft 229 kts 203°
2026-04-29 20:25 23.63580 58.56140 3970 ft 202 kts 234°
2026-04-29 20:26 23.62943 58.54892 3970 ft 177 kts 262°
2026-04-29 20:26 23.62798 58.53604 3960 ft 171 kts 271°
2026-04-29 20:26 23.62697 58.52333 3839 ft 162 kts 269°
2026-04-29 20:26 23.62601 58.51119 3638 ft 159 kts 269°
2026-04-29 20:27 23.62508 58.49937 3434 ft 156 kts 269°
2026-04-29 20:27 23.62447 58.49162 3291 ft 153 kts 269°
2026-04-29 20:27 23.62329 58.47674 3056 ft 144 kts 267°
2026-04-29 20:27 23.62243 58.46571 2884 ft 147 kts 266°
2026-04-29 20:28 23.62156 58.45467 2696 ft 147 kts 265°
2026-04-29 20:28 23.62069 58.44359 2514 ft 146 kts 265°
2026-04-29 20:28 23.61983 58.43277 2335 ft 146 kts 265°
2026-04-29 20:28 23.61896 58.42171 2154 ft 146 kts 264°
2026-04-29 20:29 23.61808 58.41070 1970 ft 146 kts 264°
2026-04-29 20:29 23.61722 58.39983 1801 ft 142 kts 266°
2026-04-29 20:29 23.61638 58.38919 1622 ft 140 kts 266°
2026-04-29 20:29 23.61554 58.37861 1439 ft 140 kts 264°
2026-04-29 20:30 23.61470 58.36806 1268 ft 140 kts 265°
2026-04-29 20:30 23.61387 58.35755 1091 ft 140 kts 264°
2026-04-29 20:30 23.61303 58.34703 919 ft 140 kts 264°
2026-04-29 20:30 23.61218 58.33642 759 ft 140 kts 263°
2026-04-29 20:31 23.61134 58.32588 606 ft 140 kts 264°
2026-04-29 20:31 23.61051 58.31543 424 ft 140 kts 264°
2026-04-29 20:31 23.60966 58.30481 240 ft 141 kts 263°
2026-04-29 20:31 23.60879 58.29402 57 ft 142 kts 263°
2026-04-29 20:32 23.60805 58.28478 42 ft 99 kts 265°
2026-04-29 20:32 23.60762 58.27919 43 ft 49 kts 265°
2026-04-29 20:32 23.60746 58.27736 43 ft 1 kts 264°
2026-04-29 20:32 23.60744 58.27713 43 ft 5 kts 264°
2026-04-29 20:33 23.60739 58.27658 43 ft 9 kts 264°
2026-04-29 20:33 23.60733 58.27571 42 ft 13 kts 266°
2026-04-29 20:33 23.60726 58.27456 45 ft 17 kts 266°
2026-04-29 20:33 23.60717 58.27319 46 ft 19 kts 265°
2026-04-29 20:34 23.60706 58.27170 46 ft 21 kts 265°
2026-04-29 20:34 23.60693 58.26997 47 ft 23 kts 265°
2026-04-29 20:34 23.60676 58.26817 46 ft 14 kts 264°